Theta_e
299 297 296 295 294 294 293 293 293 293 295 295 296 295 293 292 290 290 289 288 289 290
298 297 296 294 293 293 293 295 293 292 293 294 294 293 292 290 289 289 289 289 290 290
295 295 295 293 293 293 292 293 292 291 292 292 292 292 291 289 289 289 288 289 287 287
294 294 294 293 293 293 292 292 291 292 291 288 288 288 287 287 287 286 284 283 283 283
293 293 293 292 293 292 291 292 292 292 288 288 286 286 285 284 284 283 282 283 282 282
292 292 292 291 291 292 292 291 292 289 288 288 287 286 284 284 283 281 281 281 281 281
292 293 291 290 292 293 294 292 291 288 288 288 286 285 284 283 281 280 281 281 281 280
293 293 291 291 292 293 292 292 291 289 288 286 284 284 281 281 281 280 280 280 280 280
292 292 292 292 292 290 292 291 287 287 286 284 285 286 285 283 280 280 279 278 279 279
291 291 291 291 291 291 287 287 287 285 284 282 282 286 287 287 282 280 278 278 278 279
291 290 290 288 289 288 286 286 284 283 282 281 283 285 285 284 280 278 279 279 278 278
290 289 289 289 288 285 284 282 283 282 281 280 280 284 283 281 277 277 277 278 278 278
289 288 288 287 285 285 283 283 282 282 280 281 278 281 282 280 276 272 276 277 277 278
287 287 287 287 286 284 281 280 278 277 278 278 278 277 280 279 276 275 276 275 276 277
Wind_Speed
6 4 4 4 3 3 3 3 2 0 3 4 4 3 3 2 3 4 4 6 5 4
4 5 4 5 5 4 4 4 4 4 4 5 6 5 4 3 5 4 4 5 4 4
4 5 6 6 7 6 6 5 5 4 2 5 5 5 4 4 5 5 4 2 4 4
5 3 6 6 6 7 5 5 5 3 3 4 2 3 3 4 3 4 3 3 4 4
4 4 6 6 7 5 6 7 6 4 4 2 2 2 1 4 2 3 4 4 5 5
7 6 7 7 7 5 5 6 6 6 3 2 3 3 4 3 3 2 2 4 4 6
7 9 7 4 3 4 2 3 11 5 3 3 2 3 3 3 2 3 4 5 5 6
5 4 3 5 6 3 3 4 7 6 5 2 4 1 2 1 2 4 5 5 5 5
5 6 6 6 6 4 1 5 5 6 3 4 2 2 2 4 4 4 5 6 6 6
4 5 6 6 6 4 6 6 9 3 4 4 2 4 10 11 3 4 5 6 6 8
5 5 5 5 5 2 1 5 2 4 4 3 4 11 10 10 5 4 5 6 8 8
5 6 5 5 5 4 3 1 3 3 3 5 5 11 13 7 4 6 7 8 9 10
5 5 5 5 5 3 1 4 3 3 5 7 5 12 12 10 1 5 7 7 10 15
6 6 6 5 2 1 5 4 2 3 3 3 6 6 14 16 5 5 6 7 8 8
Wind_Direction
145 157 184 190 184 170 181 201 218 235 204 218 224 252 263 281 287 288 289 286 275 271
175 198 207 195 170 190 197 213 211 221 226 245 243 247 257 259 273 256 269 281 288 298
222 215 212 183 200 207 217 216 222 241 289 282 274 272 277 277 294 293 295 320 357 333
251 233 196 211 217 218 218 232 237 272 239 253 268 297 315 308 9 45 19 357 352 320
253 241 216 231 234 232 226 218 223 205 218 250 267 304 14 112 73 41 357 348 333 321
291 294 246 241 237 247 302 357 334 251 237 262 283 158 156 130 93 39 345 309 306 304
313 301 298 322 299 252 170 274 269 249 247 261 199 169 119 82 39 335 311 293 295 290
360 352 286 272 293 300 222 286 284 273 277 301 160 162 130 138 278 294 293 285 282 287
338 340 341 316 277 229 305 296 325 306 331 55 75 188 300 261 269 289 291 289 285 275
357 358 328 311 317 25 39 20 291 27 79 63 277 259 323 332 280 296 287 284 293 304
348 328 335 358 4 41 201 237 163 91 60 17 346 356 23 4 344 317 305 304 301 300
335 320 304 312 308 274 282 110 87 87 44 20 6 16 5 27 359 331 315 307 306 303
306 312 305 290 279 260 271 109 96 76 47 63 28 4 5 358 332 312 311 318 314 316
329 308 292 290 279 324 101 106 78 74 40 51 29 4 2 352 346 320 325 320 320 317